Weather History for Liberia, Costa Rica

Change the Weather History Date:

Friday, May 23, 2014

  Actual Average Record
Temperature  
Mean Temperature 83 °F -  
Max Temperature 93 °F 87 °F 96 °F (1998)
Min Temperature 73 °F 75 °F 71 °F (2011)
Cooling Degree Days 18    
Growing Degree Days 33 (Base 50)    
Moisture  
Dew Point 69 °F    
Average Humidity 57    
Maximum Humidity 89    
Minimum Humidity 37    
Precipitation  
Precipitation 0.00 in - - ()
Sea Level Pressure  
Sea Level Pressure 29.84 in    
Wind  
Wind Speed 7 mph ()    
Max Wind Speed 18 mph    
Max Gust Speed -    
Visibility 7.9 miles    
Events      
Averages and records for this station are not official NWS values.
T = Trace of Precipitation, MM = Missing Value Source: Averaged Metar Reports

Daily Weather History Graph

Daily Weather History Graph

Search for Another Location

Airport:

Trip Planner

Search our weather history database for the weather conditions in past years. The results will help you decide how hot, cold, wet, or windy it might be!

Date:

Astronomy

May. 23, 2014 Rise Set
Actual Time 5:19 AM CST 5:58 PM CST
Civil Twilight 4:56 AM CST 6:21 PM CST
Nautical Twilight 4:29 AM CST 6:48 PM CST
Astronomical Twilight 4:03 AM CST 7:15 PM CST
Moon 1:15 AM CST (5/23) 1:42 PM CST (5/23)
Length of Visible Light 13h 24m
Length of Day
12h 39m
Waning Crescent, 26% of the Moon is Illuminated
May 23
Waning Crescent
May 28
New
Jun 5
First Quarter
Jun 12
Full
Jun 19
Last Quarter

Hourly Weather History & Observations

Time (CST) Temp. Heat Index Dew Point Humidity Pressure Visibility Wind Dir Wind Speed Gust Speed Precip Events Conditions
6:00 AM 80 °F - 72 °F 71% 29.89 in 12 mi East 2.3 mph - -   Overcast
6:00 AM 75.2 °F - 71.6 °F 89% 29.85 in - East 2.3 mph - N/A   Clear
7:00 AM 77.0 °F - 71.6 °F 83% 29.87 in - NNW 3.5 mph - N/A   Clear
8:00 AM 82.4 °F 88.2 °F 73.4 °F 74% 29.88 in - West 3.5 mph - N/A   Clear
9:00 AM 84 °F - 72 °F 61% 29.90 in 12 mi WSW 6.9 mph - -   Scattered Clouds
9:00 AM 84.2 °F 90.9 °F 73.4 °F 70% 29.87 in 6.2 mi WSW 6.9 mph - N/A   Partly Cloudy
10:00 AM 87.8 °F 93.8 °F 71.6 °F 58% 29.88 in 6.2 mi South 6.9 mph - N/A   Scattered Clouds
11:00 AM 89.6 °F 94.7 °F 69.8 °F 52% 29.87 in 6.2 mi ENE 15.0 mph - N/A   Scattered Clouds
12:00 PM 92 °F - 69 °F 38% 29.88 in 12 mi ENE 6.9 mph - -   Partly Cloudy
12:00 PM 91.4 °F 96.8 °F 69.8 °F 49% 29.85 in 6.2 mi ENE 6.9 mph - N/A   Mostly Cloudy
1:00 PM 93.2 °F 98.8 °F 69.8 °F 46% 29.82 in 6.2 mi NE 8.1 mph - N/A   Scattered Clouds
2:00 PM 91.4 °F 96.8 °F 69.8 °F 49% 29.79 in 6.2 mi NE 11.5 mph - N/A   Scattered Clouds
3:00 PM 91 °F - 68 °F 37% 29.80 in 12 mi ENE 12.7 mph - -   Partly Cloudy
3:00 PM 91.4 °F 95.4 °F 68.0 °F 46% 29.78 in 6.2 mi ENE 12.7 mph - N/A   Scattered Clouds
4:00 PM 89.6 °F 92.2 °F 66.2 °F 46% 29.77 in 6.2 mi NE 17.3 mph - N/A   Scattered Clouds
5:00 PM 87.8 °F 91.4 °F 68.0 °F 52% 29.78 in 6.2 mi ENE 18.4 mph - N/A   Scattered Clouds
6:00 PM 83 °F - 65 °F 44% 29.82 in 12 mi East 15.0 mph - -   Scattered Clouds
6:00 PM 82.4 °F 83.9 °F 64.4 °F 54% 29.81 in 6.2 mi East 15.0 mph - N/A   Scattered Clouds
7:00 PM 82.4 °F 84.6 °F 66.2 °F 58% 29.84 in 6.2 mi East 9.2 mph - N/A   Mostly Cloudy
8:00 PM 80.6 °F 82.7 °F 66.2 °F 61% 29.86 in 6.2 mi East 6.9 mph - N/A   Scattered Clouds